Back to catalog

CZ-4B DEB

AlivePO
NORAD 44589·DEBRIS·🇨🇳 China

Launched Oct 14, 1999 from Taiyuan Satellite Launch Center

Loading…

Next Passes (next 24 hours)

TLE

FreshSource: Space-Track

Epoch: Sep 14, 2026, 11:29 UTC

1 44589U 99057TB  26257.47880105  .00000347  00000-0  55928-4 0  9992
2 44589  98.7582 144.6971 0083157  94.1037 266.9680 14.76444286688837

Track CZ-4B DEB in real time with AllMySat

Download on the App Store